Regional Weather Roundup
Issued by NWS

Home | Current Version | Previous Version | Text Only | Print | Product List | Glossary Off
Versions: 1 2 3 4 5 6 7 8 9 10 11 12 13 14 15 16 17 18 19 20 21 22 23 24 25 26 27 28 29 30 31 32 33 34 35 36 37 38 39 40 41 42 43 44 45 46 47 48 49 50

859
ASUS43 KMPX 240810
RWRMN
WEATHER ROUNDUP FOR MINNESOTA
NATIONAL WEATHER SERVICE TWIN CITIES/CHANHASSEN MN
300 AM CDT WED AUG 24 2016


NOTE: "FAIR" INDICATES FEW OR NO CLOUDS BELOW 12,000 FEET WITH NO
SIGNIFICANT WEATHER AND/OR OBSTRUCTIONS TO VISIBILITY. N/A MEANS
CURRENT SKY AND/OR WEATHER CONDITIONS ARE NOT AVAILABLE.

MNZ060>063-068>070-240900-
   Twin Cities Metro

CITY           SKY/WX    TMP DP  RH WIND       PRES   REMARKS
TWIN CITIES    CLOUDY    68  65  90 S3        29.80F
ST PAUL        CLOUDY    68  66  93 S5        29.81S
CRYSTAL        CLOUDY    67  64  90 SE3       29.79F
BLAINE         CLOUDY    70  70 100 CALM      29.81S
LAKEVILLE      CLOUDY    64  64 100 CALM      29.81S
EDEN PRAIRIE   CLOUDY    68  66  93 S5        29.80S
LAKEVILLE      CLOUDY    64  64 100 CALM      29.81S
SOUTH ST PAUL  CLOUDY    68  67  98 S5        29.80S
LAKE ELMO      CLOUDY    68  68 100 SW8       29.82S
$$
MNZ001>005-007-008-013>017-022>024-027-028-240900-
   Northwest Minnesota

CITY           SKY/WX    TMP DP  RH WIND       PRES   REMARKS
BEMIDJI        CLOUDY    70  67  92 SW7       29.79S
HALLOCK        CLEAR     57  55  94 W5        29.77S
ROSEAU         CLOUDY    70  64  83 W8        29.76R
WARROAD        CLOUDY    70  66  88 W7        29.74R
THIEF RVR FALL CLOUDY    63  54  72 W8        29.80S
CROOKSTON      CLEAR     61  55  82 CALM      29.81S
FOSSTON        CLOUDY    66  55  68 W8        29.81R
DETROIT LAKES  CLOUDY    70  59  68 NW14      29.83R
MOORHEAD       MOCLDY    68  61  77 NW5       29.83R
PARK RAPIDS    CLOUDY    69  66  90 S6        29.80S
MAHNOMEN       CLOUDY    67  57  71 NW8       29.81S
$$
MNZ006-009>011-018-025>026-240900-
   North Central Minnesota

CITY           SKY/WX    TMP DP  RH WIND       PRES   REMARKS
BAUDETTE       CLOUDY    72  66  81 W5        29.74S
FLAG ISLAND    MOCLDY    72  66  83 W3        29.70S
INTL FALLS     CLOUDY    71  67  87 VRB7      29.76F
WASKISH        CLOUDY    72  68  88 SW8       29.77S
BIG FORK       PTCLDY    68  64  88 S6        29.80F
LONGVILLE      CLEAR     64  63  94 CALM      29.80R
GRAND RAPIDS   PTCLDY    64  63  96 SE6       29.84R
CRANE LAKE     PTCLDY    66  64  94 S5        29.81F
ORR            CLEAR     66  61  82 CALM      29.78F
COOK           CLOUDY    66  63  88 S5        29.82F
WALKER         FAIR      67  65  93 S3        29.80S
$$
MNZ012-019>021-037-240900-
   Northeast Minnesota

CITY           SKY/WX    TMP DP  RH WIND       PRES   REMARKS
DULUTH         PTCLDY    67  63  87 S5        29.85R
ELY            CLEAR     64  63  94 CALM      29.84F
HIBBING        FOG       58  58 100 CALM      29.83S VSB 1/4
EVELETH        PTCLDY    61  60  96 CALM      29.85F FOG
DULUTH HARBOR  CLOUDY    70  64  83 S7        29.82S
TWO HARBORS    CLOUDY    63  59  88 CALM      29.83S
SILVER BAY     CLOUDY    61  59  94 CALM      29.83F
GRAND MARAIS     N/A     64  63  96 CALM      29.84S
G MARAIS ARPRT PTCLDY    61  57  88 S3        29.89F FOG
$$
MNZ029>031-032-039>041-046>048-054>057-064-240900-
   West Central Minnesota

CITY           SKY/WX    TMP DP  RH WIND       PRES   REMARKS
FERGUS FALLS   CLOUDY    66  66 100 CALM      29.83R
WHEATON        PTCLDY    70  57  64 NW8       29.85R
MORRIS         MOCLDY    66  66 100 CALM      29.81R FOG
ALEXANDRIA     CLOUDY    66  65  96 SW8       29.83S
ELBOW LAKE     CLOUDY    66  66 100 CALM      29.83R
WADENA         MOCLDY    64  63  94 CALM      29.81R FOG
GLENWOOD       CLOUDY    66  64  94 S5        29.83S
APPLETON       CLOUDY    70  66  88 SW5       29.81S
BENSON         CLOUDY    66  63  88 CALM      29.81S FOG
ORTONVILLE     MOCLDY    72  54  53 NW10      29.82R
MADISON        CLOUDY    68  66  94 W8        29.82F
WILLMAR        CLOUDY    68  66  94 CALM      29.83R
$$
MNZ033>034-036-042>043-049>051-058-059-240900-
   Central Minnesota

CITY           SKY/WX    TMP DP  RH WIND       PRES   REMARKS
ST CLOUD       CLOUDY    66  66 100 SE6       29.81S
SAUK CENTRE    CLOUDY    65  65  97 S5        29.82R
PAYNESVILLE    CLOUDY    66  67 100 CALM      29.82S
AITKIN         CLOUDY    66  61  82 CALM      29.81R
PINE RIVER     CLEAR     64  64 100 CALM      29.84R
BRAINERD       CLOUDY    65  64  97 S6        29.82R
STAPLES        CLOUDY    64  64 100 CALM      29.81S
LONG PRAIRIE   CLOUDY    64  64 100 SE5       29.82R
LITTLE FALLS   CLOUDY    66  63  88 S5        29.82R
LITCHFIELD     CLOUDY    68  66  94 CALM      29.82R
BUFFALO        CLOUDY    66  64  92 CALM      29.82S
MAPLE LAKE     CLOUDY    67  66  97 CALM      29.82S
HUTCHINSON     CLOUDY    67  67  99 CALM      29.82S
$$
MNZ037-044-045-052-053-240900-
   East Central Minnesota

CITY           SKY/WX    TMP DP  RH WIND       PRES   REMARKS
PRINCETON      CLOUDY    66  64  94 SE6       29.81S
MORA           CLOUDY    64  63  94 S8        29.83S
CAMBRIDGE      DRIZZLE   68  63  83 SE3       29.79F
RUSH CITY      RAIN      66  65  94 CALM      29.82F
MOOSE LAKE     CLOUDY    68  63  83 CALM      29.81R
HINCKLEY       CLOUDY    66  66 100 S7        29.81F
CLOQUET        PTCLDY    64  61  88 S3        29.83S
MCGREGOR       CLOUDY    63  61  94 CALM      29.83R
$$
MNZ071>073-080-081-089-090-097-098-240900-
   Southwest Minnesota

CITY           SKY/WX    TMP DP  RH WIND       PRES   REMARKS
MONTEVIDEO       N/A     66  66 100 SW3       29.83S
GRANITE FALLS  CLOUDY    68  67  97 CALM      29.83S
CANBY          CLOUDY    70  67  88 NW10      29.85R
MARSHALL       MOCLDY    67  66  97 CALM      29.84R
REDWOOD FALLS  CLOUDY    67  65  93 CALM      29.82R
OLIVIA         CLOUDY    68  64  88 CALM      29.81S
PIPESTONE      CLOUDY    72  70  94 NW10      29.86R
WINDOM         CLOUDY    66  64  94 CALM      29.84R FOG
WORTHINGTON    CLOUDY    70  66  88 SW6       29.85R
JACKSON        MOCLDY    70  68  94 SW6       29.85R
TRACY          CLOUDY    68  68  99 CALM      29.85R
SLAYTON        CLOUDY    72  70  94 W7        29.85R
$$
MNZ065>067-074>077-082>085-091>093-240900-
   South Central Minnesota

CITY           SKY/WX    TMP DP  RH WIND       PRES   REMARKS
MANKATO        MOCLDY    66  64  94 S6        29.81S
NEW ULM        LGT RAIN  66  66 100 CALM      29.81R
ST JAMES       CLOUDY    63  61  94 S5        29.81F FOG
FAIRMONT         N/A    N/A N/A N/A MISG        N/A
GLENCOE        MOCLDY    67  67 100 CALM      29.80S
FARIBAULT      CLOUDY    66  66 100 CALM      29.83S
OWATONNA       CLOUDY    70  66  88 S5        29.83S
WASECA         CLOUDY    68  64  88 S5        29.83S
ALBERT LEA     MOCLDY    68  66  94 S3        29.84S
$$
MNZ078>079-086>088-094>096-240900-
   Southeast Minnesota

CITY           SKY/WX    TMP DP  RH WIND       PRES   REMARKS
ROCHESTER      CLOUDY    66  65  96 S7        29.86S
RED WING       LGT RAIN  70  66  88 CALM      29.81S
STANTON        CLOUDY    68  66  94 CALM      29.81S
DODGE CENTER   CLOUDY    66  64  94 S12       29.84S
WINONA         CLOUDY    68  64  88 SE5       29.85S
AUSTIN         CLOUDY    66  63  88 S3        29.85S
PRESTON        CLOUDY    64  62  93 S9        29.88S
$$
ABBREVIATIONS USED IN REMARKS
   TC - TEMPERATURES IN CELSIUS
  WCI - WIND CHILL INDEX
   HX - HEAT INDEX
  VSB - VISIBILITY
$$




USA.gov is the U.S. government's official web portal to all federal, state and local government web resources and services.